Wind_Speed
18 19 21 20 19 19 18 17 17 18 17 15 15 14 13 13 16 14 15 13 14 12 13 17 16 28 46 56 57 55 57 57 49 44 40 33 26 28 45 48 40 36 41 45 47
22 23 23 21 20 20 20 19 20 21 21 20 17 15 13 13 11 14 16 14 14 16 17 17 20 26 33 47 56 60 61 56 50 45 43 41 32 20 44 52 44 37 52 55 48
25 23 21 21 22 23 23 23 22 23 23 22 22 21 19 19 16 17 17 17 18 20 20 22 24 25 32 37 47 60 66 56 53 51 50 51 46 23 41 57 45 49 57 56 47
23 22 22 23 25 25 23 24 25 27 27 28 30 28 26 24 24 19 25 25 25 25 26 26 28 30 32 33 39 49 59 61 58 56 58 59 55 52 39 53 48 48 53 59 54
24 22 22 23 25 27 30 32 31 32 34 34 35 35 37 33 36 32 33 32 35 34 31 32 34 34 35 36 41 43 47 55 59 63 62 62 65 66 62 64 52 51 57 62 61
25 24 25 27 30 33 35 36 37 38 39 40 42 42 38 39 38 40 42 43 44 45 45 45 42 41 44 41 42 45 50 51 57 61 60 62 65 69 70 70 63 59 61 63 62
27 27 29 31 32 34 36 38 39 41 43 44 45 45 45 46 46 47 47 49 50 51 51 52 51 53 50 49 48 49 52 58 57 58 62 61 67 71 69 69 72 71 67 66 58
25 27 30 33 35 37 40 41 43 45 46 49 51 51 49 50 51 52 55 54 55 55 54 54 55 57 56 53 55 54 55 59 59 61 59 65 71 63 64 65 70 73 72 70 66
30 31 34 38 40 43 45 46 48 52 53 53 54 56 57 56 57 58 59 61 63 60 58 59 59 58 59 61 60 58 60 61 62 64 64 64 64 57 59 63 66 71 74 73 71
36 38 43 44 47 49 51 52 52 55 55 58 61 64 64 66 69 68 65 59 60 62 62 57 56 56 59 62 66 61 59 61 63 65 60 62 67 61 60 62 62 64 68 71 73
44 46 49 52 52 56 56 60 62 62 58 63 66 69 63 69 76 68 66 57 49 49 51 53 57 58 57 59 57 55 58 60 62 58 51 56 67 68 64 63 62 61 65 67 67
49 50 53 56 59 63 65 63 67 70 69 74 68 71 67 61 58 51 57 55 49 49 53 57 58 53 56 52 54 54 56 61 62 54 35 37 58 62 55 67 64 60 61 61 62
50 53 56 59 65 67 69 72 74 77 82 72 77 72 65 54 42 34 41 43 42 45 46 48 47 48 50 47 47 51 52 56 57 55 48 36 46 42 45 46 65 64 59 58 54
56 60 61 63 68 70 73 77 76 69 73 65 66 60 51 48 43 43 37 36 38 40 42 41 38 36 39 36 33 49 50 49 47 40 48 46 47 43 41 53 66 65 57 56 52
60 62 64 69 72 73 75 67 62 58 66 31 34 37 43 40 29 36 30 35 32 36 37 35 38 40 44 35 43 42 40 44 37 41 40 51 45 44 45 58 58 60 58 55 53
65 67 68 72 76 76 71 65 57 58 48 21 35 30 16 15 31 37 31 30 31 28 38 40 40 35 34 37 47 40 36 44 48 41 46 44 50 55 40 33 45 58 52 55 56
68 72 75 75 71 63 58 58 56 56 31 29 41 41 49 51 53 52 39 39 39 40 43 36 31 34 34 40 39 36 42 39 36 46 48 45 50 58 39 38 40 43 48 55 56
73 74 76 67 59 57 55 56 58 37 32 46 49 49 47 52 54 36 29 32 29 30 46 34 26 31 32 33 38 44 46 43 43 49 44 44 49 45 56 53 33 28 32 44 54
76 75 77 61 60 56 55 57 46 52 53 55 51 56 54 52 49 34 32 35 31 18 34 34 32 31 36 36 38 39 48 53 54 29 31 32 36 28 38 38 43 36 38 36 48
77 68 72 60 59 60 59 57 55 52 54 54 55 51 51 42 37 46 44 37 31 34 40 32 33 28 28 44 37 39 41 38 41 35 40 32 28 22 26 27 39 46 45 43 42
69 61 66 56 60 60 59 58 53 50 54 50 45 42 26 26 17 16 33 43 31 25 31 31 26 22 26 26 23 37 43 45 44 35 42 36 29 29 26 38 34 39 46 51 47
61 58 58 57 55 56 56 53 54 51 46 37 35 24 19 12 11 14 8 34 36 23 27 31 16 22 26 27 11 28 38 30 32 34 40 34 35 38 40 45 39 44 42 42 46
58 58 60 59 56 53 53 49 50 41 37 34 26 11 9 28 21 14 5 10 17 24 22 27 25 15 16 16 10 36 29 35 35 33 40 34 22 20 44 41 46 43 33 35 39
60 58 54 54 56 54 50 48 44 33 31 28 18 10 14 15 20 18 7 13 5 17 14 29 28 20 17 18 24 27 30 31 30 30 26 43 28 30 23 25 24 23 23 23 31
62 60 58 55 51 46 47 45 36 30 27 26 19 17 20 21 20 17 17 13 10 18 18 27 25 20 19 21 23 25 32 33 24 37 33 36 41 43 39 40 37 40 31 26 31
62 61 57 53 47 43 43 36 30 28 28 22 19 16 12 10 15 15 17 15 18 22 23 25 19 19 15 25 26 29 29 31 35 35 36 27 45 27 26 21 47 33 32 29 32
65 63 56 47 42 39 37 30 27 28 16 16 11 15 17 16 5 17 19 16 16 17 13 13 13 17 14 26 25 30 25 24 26 25 22 25 18 28 29 33 29 23 26 28 36
Wind_Direction
335 331 330 331 329 330 327 327 325 322 320 315 303 300 299 298 300 300 294 287 285 287 285 268 261 249 231 227 231 233 235 235 230 228 228 214 193 251 243 248 240 236 240 242 243
332 330 329 331 331 328 327 325 320 318 316 314 306 295 292 292 293 293 278 283 277 277 275 267 262 249 245 233 230 233 238 239 239 235 234 232 201 228 268 248 233 234 236 242 247
333 334 336 335 335 334 332 329 325 324 323 321 319 314 309 296 288 279 285 279 277 276 268 268 263 255 251 243 243 236 238 240 242 240 237 236 219 218 247 252 231 230 243 246 247
333 332 333 333 334 333 331 325 320 316 314 312 309 307 300 300 299 290 287 283 276 273 273 269 263 263 261 252 250 247 246 241 239 236 237 234 235 220 235 245 235 224 237 246 239
336 333 331 329 327 323 323 322 321 319 316 314 312 305 301 303 303 301 297 292 288 283 273 267 267 267 263 264 254 252 248 244 242 241 240 238 235 235 227 241 240 226 230 238 239
329 325 323 322 321 321 319 315 315 310 308 305 303 297 297 300 293 293 294 293 291 289 289 287 281 269 264 263 264 259 251 249 245 240 240 243 239 237 233 240 242 238 237 240 244
322 317 318 317 317 315 314 312 310 306 303 301 297 295 293 295 285 287 284 286 286 284 283 283 281 278 276 268 267 266 263 252 247 245 243 241 240 241 239 241 243 241 241 244 241
322 320 318 316 317 316 315 314 309 307 305 300 296 293 293 290 289 285 286 285 285 285 280 275 273 275 277 276 268 267 261 257 248 247 246 244 244 244 245 245 243 244 241 240 241
326 326 325 321 318 316 314 311 309 307 303 301 297 296 294 292 294 292 291 289 286 284 279 276 273 270 268 271 267 264 265 260 249 246 244 247 243 243 242 243 241 241 243 242 239
328 327 325 322 319 315 312 309 308 305 304 302 303 299 299 298 294 293 296 291 287 283 278 272 265 263 263 261 265 265 255 250 252 248 246 248 244 240 241 240 241 243 243 243 240
326 323 322 322 320 320 318 314 310 306 301 302 305 301 310 305 299 298 292 285 274 263 263 258 254 258 258 255 255 254 251 249 245 249 252 253 248 245 243 242 238 241 242 239 239
325 322 322 320 318 317 316 315 314 312 305 309 307 302 304 301 298 290 286 282 272 264 260 256 253 252 253 253 251 248 246 244 245 238 221 253 250 247 249 244 240 237 241 241 241
324 320 318 319 318 317 316 317 318 317 316 316 310 310 310 306 300 287 281 280 274 265 261 263 258 252 252 250 250 248 247 245 246 244 228 232 234 234 235 244 241 234 239 241 240
320 320 318 320 319 319 319 322 322 318 312 319 314 310 305 303 296 297 291 282 269 262 257 258 256 255 249 243 253 255 246 246 248 243 235 219 234 231 232 229 238 237 234 238 238
320 318 319 320 321 324 324 321 316 314 317 315 299 299 302 305 296 301 299 287 279 266 257 249 236 235 241 249 237 240 251 254 237 250 238 226 238 234 240 243 242 240 236 237 235
321 321 323 325 326 326 327 322 316 314 324 310 286 286 253 279 294 296 276 270 255 273 280 258 253 237 242 243 234 249 239 240 254 239 241 237 230 229 224 235 247 238 237 236 237
323 324 327 327 326 323 317 316 317 319 313 273 267 275 278 282 281 285 280 261 259 266 265 258 252 260 249 245 227 243 227 240 227 237 238 238 232 226 225 225 235 239 242 235 237
325 326 327 333 320 317 319 321 319 318 287 290 291 298 289 280 281 284 271 272 254 240 262 269 254 251 237 248 248 234 241 241 243 244 246 244 237 238 237 239 223 233 231 241 238
328 330 331 330 323 323 322 322 322 313 313 309 306 302 296 285 270 249 244 250 257 229 262 257 252 245 233 231 245 230 238 233 229 230 236 238 248 250 236 230 201 208 215 227 235
333 332 331 327 325 325 324 322 318 318 315 311 310 307 307 299 281 236 227 226 223 235 247 243 264 256 229 234 233 237 239 239 219 213 226 222 222 229 219 220 215 214 213 219 234
330 328 328 329 325 324 323 324 323 320 319 318 317 317 318 312 287 304 231 219 231 233 239 241 284 269 252 243 233 230 233 225 206 208 214 220 211 212 214 215 223 212 222 221 231
328 327 327 325 324 327 326 323 324 325 324 322 324 320 319 307 311 342 284 214 212 225 241 235 268 265 250 257 229 217 204 207 228 196 204 229 201 195 204 212 214 219 221 231 229
328 329 327 327 324 323 323 323 324 327 326 331 333 326 334 323 315 318 317 192 215 231 242 243 253 264 240 242 205 187 205 225 214 200 212 216 246 223 189 197 207 201 207 224 227
329 327 326 323 323 324 324 324 328 328 328 327 331 294 280 288 308 290 325 313 281 216 226 241 239 257 216 231 217 213 191 206 211 211 201 220 213 231 233 237 180 177 232 242 222
327 326 326 324 322 324 325 328 329 331 326 325 317 298 284 292 278 275 265 250 224 228 213 223 230 241 238 252 214 223 209 222 209 220 209 204 215 220 229 228 227 233 239 231 224
325 324 325 324 321 323 326 331 327 331 327 335 328 338 359 333 261 250 253 233 232 218 223 233 224 240 240 232 237 220 214 219 214 221 217 219 207 252 238 227 231 244 233 223 211
324 322 325 321 318 323 327 331 330 340 333 343 357 4 1 338 280 246 232 228 218 227 250 222 241 246 243 229 238 219 202 195 198 201 208 231 227 230 219 246 247 230 207 192 205
Height
5850 5848 5844 5842 5839 5836 5833 5831 5829 5826 5825 5823 5821 5819 5817 5816 5814 5813 5812 5813 5812 5812 5811 5812 5812 5815 5817 5821 5826 5829 5827 5831 5842 5849 5856 5862 5867 5870 5868 5871 5878 5876 5879 5874 5873
5848 5845 5842 5839 5836 5834 5832 5829 5826 5824 5821 5819 5817 5816 5815 5814 5813 5810 5810 5808 5808 5808 5809 5809 5810 5810 5812 5816 5817 5817 5818 5827 5839 5845 5848 5853 5857 5865 5859 5860 5868 5870 5866 5866 5874
5844 5842 5839 5836 5833 5831 5829 5827 5825 5821 5818 5817 5815 5812 5810 5809 5809 5808 5806 5806 5804 5803 5803 5803 5804 5805 5807 5809 5811 5811 5810 5824 5830 5835 5838 5841 5848 5852 5849 5845 5858 5864 5859 5860 5870
5842 5839 5836 5833 5830 5827 5825 5823 5820 5817 5815 5812 5809 5807 5806 5805 5804 5802 5800 5800 5800 5799 5799 5798 5797 5797 5800 5802 5803 5801 5808 5812 5817 5821 5824 5829 5836 5836 5836 5837 5846 5853 5852 5849 5857
5839 5836 5833 5830 5827 5824 5822 5819 5815 5812 5809 5806 5803 5801 5798 5797 5793 5793 5792 5791 5790 5790 5790 5791 5791 5790 5790 5791 5792 5794 5797 5799 5802 5807 5812 5814 5819 5823 5824 5829 5839 5844 5840 5838 5843
5836 5832 5828 5825 5821 5819 5816 5812 5810 5806 5802 5798 5795 5792 5790 5788 5787 5785 5780 5779 5778 5777 5776 5776 5778 5778 5779 5781 5782 5784 5784 5787 5789 5795 5799 5800 5806 5806 5816 5818 5827 5832 5830 5832 5836
5831 5828 5825 5821 5817 5812 5809 5806 5802 5799 5794 5789 5784 5782 5781 5776 5775 5771 5771 5767 5765 5765 5764 5762 5762 5762 5765 5767 5769 5770 5770 5772 5779 5784 5787 5789 5784 5792 5808 5810 5813 5816 5823 5823 5834
5827 5823 5819 5815 5811 5805 5800 5795 5791 5788 5784 5780 5774 5770 5770 5764 5760 5759 5755 5754 5752 5750 5751 5750 5749 5748 5748 5751 5752 5753 5755 5757 5771 5769 5775 5767 5770 5789 5794 5799 5801 5803 5810 5814 5821
5823 5818 5814 5808 5803 5797 5791 5786 5780 5775 5771 5765 5762 5755 5753 5750 5745 5742 5739 5736 5734 5733 5732 5732 5732 5734 5735 5733 5733 5737 5739 5742 5750 5753 5755 5748 5764 5776 5777 5780 5783 5788 5794 5802 5809
5817 5811 5806 5801 5794 5788 5782 5775 5770 5763 5757 5751 5744 5741 5737 5731 5726 5725 5719 5715 5712 5710 5711 5711 5712 5715 5718 5713 5717 5722 5723 5728 5733 5742 5740 5739 5750 5758 5761 5762 5769 5775 5781 5788 5796
5809 5803 5796 5790 5783 5776 5770 5762 5757 5750 5744 5736 5727 5719 5714 5705 5704 5700 5695 5692 5691 5690 5692 5692 5690 5695 5700 5696 5703 5703 5705 5709 5718 5724 5727 5729 5736 5742 5745 5748 5755 5762 5766 5774 5784
5800 5794 5787 5778 5771 5763 5753 5745 5735 5728 5728 5718 5712 5700 5696 5688 5683 5678 5673 5673 5671 5672 5671 5670 5672 5684 5678 5680 5684 5686 5689 5693 5701 5708 5715 5718 5720 5728 5729 5733 5744 5752 5755 5762 5777
5790 5782 5774 5766 5757 5747 5738 5729 5717 5704 5693 5706 5685 5678 5673 5664 5661 5661 5656 5656 5655 5652 5655 5652 5662 5664 5665 5668 5669 5672 5675 5682 5687 5695 5701 5704 5704 5712 5718 5722 5727 5737 5746 5753 5765
5778 5769 5760 5754 5742 5730 5719 5709 5696 5682 5669 5663 5662 5658 5654 5652 5646 5645 5641 5643 5639 5639 5640 5639 5646 5650 5654 5657 5660 5660 5667 5671 5673 5679 5682 5692 5689 5698 5705 5709 5712 5725 5734 5744 5756
5766 5757 5746 5735 5726 5715 5705 5693 5681 5669 5658 5655 5641 5640 5642 5639 5637 5633 5630 5623 5624 5627 5629 5631 5630 5637 5640 5642 5650 5650 5659 5658 5661 5664 5670 5674 5679 5686 5694 5695 5703 5714 5726 5735 5741
5753 5743 5733 5721 5710 5700 5685 5674 5666 5660 5654 5655 5635 5630 5630 5630 5626 5626 5623 5621 5620 5616 5616 5619 5623 5624 5627 5631 5634 5637 5641 5645 5649 5653 5652 5662 5669 5673 5679 5690 5696 5704 5713 5719 5728
5741 5729 5718 5709 5694 5681 5672 5662 5656 5645 5643 5636 5625 5623 5622 5618 5615 5612 5610 5608 5609 5609 5605 5607 5610 5615 5619 5620 5626 5629 5631 5628 5630 5636 5639 5653 5655 5661 5672 5682 5689 5696 5700 5708 5716
5727 5716 5706 5695 5681 5670 5662 5651 5640 5633 5626 5619 5615 5611 5605 5602 5598 5594 5593 5589 5594 5595 5590 5592 5594 5604 5609 5609 5613 5615 5619 5618 5622 5627 5633 5640 5639 5647 5666 5672 5683 5688 5694 5697 5706
5714 5701 5691 5678 5667 5657 5650 5640 5631 5620 5612 5601 5598 5587 5585 5579 5573 5575 5577 5580 5582 5584 5581 5583 5586 5592 5594 5592 5598 5605 5603 5613 5617 5625 5630 5635 5637 5643 5652 5660 5667 5676 5685 5690 5695
5699 5687 5678 5664 5651 5642 5635 5627 5618 5607 5597 5589 5576 5567 5556 5554 5550 5554 5558 5566 5570 5571 5571 5575 5574 5580 5586 5585 5590 5592 5595 5593 5602 5612 5618 5625 5627 5634 5641 5650 5659 5667 5676 5682 5689
5687 5673 5659 5654 5639 5630 5622 5613 5605 5599 5585 5573 5563 5556 5550 5543 5541 5540 5542 5553 5560 5563 5564 5568 5569 5571 5572 5574 5579 5579 5580 5591 5595 5604 5611 5617 5623 5623 5635 5644 5651 5658 5664 5673 5681
5677 5665 5655 5644 5638 5620 5611 5602 5592 5584 5575 5566 5556 5549 5545 5541 5539 5537 5535 5545 5549 5555 5558 5560 5562 5562 5567 5566 5567 5570 5584 5589 5590 5599 5605 5612 5612 5617 5623 5629 5641 5647 5655 5662 5668
5668 5656 5638 5632 5624 5618 5608 5599 5585 5574 5566 5559 5552 5548 5543 5542 5537 5536 5537 5543 5548 5550 5553 5557 5560 5560 5566 5567 5569 5573 5580 5574 5591 5597 5597 5604 5609 5611 5604 5624 5622 5632 5642 5651 5663
5655 5647 5639 5624 5614 5604 5596 5589 5581 5571 5563 5556 5551 5546 5541 5540 5537 5535 5537 5540 5540 5544 5549 5553 5555 5557 5562 5558 5563 5568 5572 5578 5584 5592 5599 5600 5607 5611 5619 5619 5618 5627 5640 5647 5653
5645 5636 5622 5616 5609 5599 5589 5578 5571 5566 5561 5553 5550 5544 5539 5537 5535 5533 5534 5536 5539 5542 5549 5550 5554 5556 5559 5560 5562 5566 5571 5575 5574 5587 5594 5603 5605 5601 5609 5619 5621 5627 5634 5640 5647
5636 5627 5619 5607 5599 5591 5582 5575 5567 5563 5555 5552 5546 5540 5536 5534 5532 5532 5532 5535 5537 5543 5547 5548 5554 5556 5559 5559 5562 5564 5568 5572 5578 5586 5589 5596 5600 5600 5607 5613 5619 5625 5629 5634 5640
5625 5615 5605 5597 5590 5584 5576 5570 5564 5558 5555 5550 5544 5540 5536 5535 5531 5532 5534 5536 5540 5545 5547 5551 5553 5555 5558 5557 5558 5562 5568 5573 5579 5587 5592 5593 5595 5600 5604 5608 5615 5621 5625 5629 5633